Starlink 36572

operational
NORAD ID: 67536 Int'l Des: 2026-014 Owner: SPXS Country: US Constellation: starlink
LEOCIRCULARRETROGRADE

About Starlink 36572

Description loading...

Live Position

Loading 3D Globe...

Upcoming Passes

Altitude History

Altitude vs Time

uPlot chart will show altitude changes over time

Two-Line Element Set

1 67536U 26014E 26066.17170461 .00298666 00000-0 19280-2 0 9996
2 67536 97.2837 310.9272 0001325 84.8075 275.3342 15.75262817 8178
Epoch: Mar 7, 2026 • Age: 15 hours

Current Status

Altitude 347.5 km
Velocity 7.70 km/s
Sub-Earth Point 35.00°N, 100.1°E
Launch Date Jan 22, 2026
Age 0.1 years
Type internet

Technical Details

Classification Payload
Mass 575.00 kg
Dry Mass 530.00 kg
Total Mass 575.00 kg
Length 0.30 m
Diameter 4.10 m
Span 29.00 m
Shape Box + pan
Manufacturer SPXS
Bus Type Starlink V2MO
Phase Status In Orbit
Owner/State SPXS/US

Large Constellations

Loading constellations...